User: anonymous   Login
Location: Unspecified
(0.0000°N, 0.0000°E)
Time: 18:41:31
(UTC+00:00)
Language:

GALILEO 7 (263) - Orbit

View from above orbital plane
View from above orbital plane
View from above satellite
View from above satellite

Ground track
Ground track

The orbit data is extracted from the following two-line orbital elements,

1 40544U 15017A   18142.03878563 -.00000069  00000-0  00000+0 0  9992
2 40544  55.8781  62.4871 0002962 282.9603  76.9982  1.70474634 19591
Epoch (UTC): 22 May 2018 00:55:51
Eccentricity: 0.0002962
inclination: 55.8781°
perigee height: 23213 km
apogee height: 23230 km
right ascension of ascending node: 62.4871°
argument of perigee: 282.9603°
revolutions per day: 1.70474634
mean anomaly at epoch: 76.9982°
orbit number at epoch: 1959

The dashed part of the orbit path shows where the satellite is in the earth's shadow,  

DLR